Regional Weather Roundup
Issued by NWS

Home | Current Version | Previous Version | Graphics & Text | Print | Product List | Glossary Off
Versions: 1 2 3 4 5 6 7 8 9 10 11 12 13 14 15 16 17 18 19 20 21 22 23 24 25 26 27 28 29 30 31 32 33 34 35 36 37 38 39 40 41 42 43 44 45 46 47 48 49 50

000
ASUS43 KLSX 260359
RWRMO

WEATHER SUMMARY FOR MISSOURI
NATIONAL WEATHER SERVICE SPRINGFIELD MO
1000 PM CST SUN JAN 25 2015

NOTE: "FAIR" INDICATES FEW OR NO CLOUDS BELOW 12,000 FEET WITH NO
       SIGNIFICANT WEATHER AND/OR OBSTRUCTIONS TO VISIBILITY.
       CURRENT SKY AND/OR WEATHER CONDITIONS ARE NOT AVAILABLE FOR
       CHILLICOTHE AND FARMINGTON.

MOZ001>031-035>038-043-044-053-054-260500-
...NORTHERN AND WESTERN MISSOURI...

CITY           SKY/WX    TMP DP  RH WIND       PRES   REMARKS
KANSAS CTY INT PTCLDY    32  28  85 CALM      30.11R
KANSAS C DTWN  PTCLDY    35  28  75 N5        30.12R
LEE`S SUMMIT   CLOUDY    35  28  75 N8        30.11R WCI  29
ST JOSEPH      MOCLDY    28  26  92 CALM      30.11S
CHILLICOTHE      N/A     34  29  82 CALM      30.11R
KIRKSVILLE     CLOUDY    30  27  88 N8        30.08R WCI  22

$$
MOZ066>068-077>081-088>096-101>105-260500-
...SOUTHWEST MISSOURI...

CITY           SKY/WX    TMP DP  RH WIND       PRES   REMARKS
SPRINGFIELD    CLOUDY    36  32  85 N14       30.04R WCI  27
JOPLIN         CLOUDY    39  31  72 NW10      30.10S

$$
MOZ032>034-039>042-045>050-055>058-069>072-260500-
...CENTRAL MISSOURI...

CITY           SKY/WX    TMP DP  RH WIND       PRES   REMARKS
COLUMBIA       CLOUDY    32  28  85 NW13      30.05R WCI  22
JEFFERSON CITY CLOUDY    33  28  81 NW10      30.07R WCI  25
ROLLA          CLOUDY    30  28  92 NW13      30.00R WCI  20
SEDALIA        CLOUDY    33  29  85 N12       30.09R WCI  24
OSAGE BEACH    CLOUDY    34  28  80 NW6       30.05R WCI  29

$$
MOZ051-052-059>065-260500-
...EAST CENTRAL MISSOURI...

CITY           SKY/WX    TMP DP  RH WIND       PRES   REMARKS
ST LOUIS INTL  CLOUDY    32  26  78 N14       29.99R WCI  22
SPIRIT OF STL  CLOUDY    32  27  81 N13       30.00R WCI  22
ST CHARLES     CLOUDY    31  26  82 N12       30.00R WCI  22

$$
MOZ072>076-082>087-097>100-106>115-260500-
...SOUTH CENTRAL AND SOUTHEAST MISSOURI...

CITY           SKY/WX    TMP DP  RH WIND       PRES   REMARKS
CAPE GIRARDEAU CLOUDY    37  34  89 N24G33    29.89R WCI  26
FARMINGTON     CLOUDY    32  28  86 MISG      29.96R
POPLAR BLUFF   CLOUDY    40  33  76 NW15      29.91R
WEST PLAINS    CLOUDY    34  30  85 NW12G22   29.98R WCI  25

$$



USA.gov is the U.S. government's official web portal to all federal, state and local government web resources and services.